EW9318 Weather Reports


time (UTC)temp
C
wind
direction
speed
KPH
gust
KPH
rain 1hr
cm
rain 24hr
cm
rain mn
cm
humidity
%
barometer
mb
20260831231016 25 173 1.6 11.3 0.03 0.10 0.10 81 1011.4
20260831230535 25 166 1.6 11.3 0.03 0.10 0.10 81 1011.4
20260831230017 25 177 4.8 11.3 0.03 0.10 0.10 80 1011.5
20260831225515 25 184 3.2 12.9 0.03 0.10 0.10 80 1011.7
20260831225015 25 176 4.8 12.9 0.03 0.10 0.10 79 1011.6
20260831224537 25 162 3.2 14.5 0.03 0.10 0.10 79 1011.6
20260831224016 25 157 6.4 16.1 0.03 0.10 0.10 78 1011.4
20260831223516 25 156 6.4 16.1 0.03 0.10 0.10 78 1011.3
20260831223016 25 144 4.8 12.9 0.05 0.10 0.10 78 1011.3
20260831222517 25 159 4.8 12.9 0.03 0.08 0.08 78 1011.5
20260831222016 25 165 4.8 9.7 0.03 0.08 0.08 78 1011.6
20260831221515 25 152 4.8 8.0 0.03 0.08 0.08 77 1011.4
20260831221037 26 151 3.2 14.5 0.03 0.08 0.08 77 1011.6
20260831220515 26 169 4.8 14.5 0.03 0.08 0.08 77 1011.6
20260831220017 26 166 3.2 17.7 0.03 0.08 0.08 77 1011.7
20260831215536 26 181 6.4 17.7 0.05 0.08 0.08 77 1011.9
20260831215015 26 188 6.4 16.1 0.05 0.08 0.08 77 1012.0
20260831214516 26 184 6.4 14.5 0.05 0.08 0.08 76 1012.0
20260831214036 26 186 4.8 12.9 0.05 0.08 0.08 78 1012.1
20260831213515 26 180 3.2 9.7 0.05 0.08 0.08 77 1012.0
20260831213015 26 176 4.8 12.9 0.03 0.05 0.05 78 1012.0
20260831212516 26 174 3.2 12.9 0.03 0.05 0.05 78 1011.9
20260831212015 26 187 4.8 9.7 0.03 0.05 0.05 78 1011.9
20260831211515 26 165 1.6 8.0 0.03 0.05 0.05 79 1011.9
20260831211017 26 139 3.2 8.0 0.03 0.05 0.05 80 1011.8
20260831210515 26 134 4.8 8.0 0.03 0.05 0.05 80 1012.0
20260831210015 26 141 3.2 8.0 0.03 0.05 0.05 78 1012.1
20260831205515 27 147 1.6 3.2 0.00 0.03 0.03 78 1012.3
20260831205015 27 116 0.0 4.8 0.00 0.03 0.03 73 1012.4
20260831204515 27 80 1.6 9.7 0.00 0.03 0.03 71 1012.4
20260831204015 27 187 3.2 14.5 0.00 0.03 0.03 67 1012.4
20260831203516 28 174 6.4 14.5 0.00 0.03 0.03 65 1012.3
20260831203015 28 182 6.4 14.5 0.00 0.03 0.03 63 1012.2
20260831202517 28 184 6.4 16.1 0.00 0.03 0.03 61 1012.1
20260831202015 28 186 6.4 16.1 0.00 0.03 0.03 60 1012.4
20260831201515 28 190 8.0 12.9 0.00 0.03 0.03 57 1012.2
20260831201015 29 183 8.0 16.1 0.00 0.03 0.03 57 1012.3
20260831200536 29 199 9.7 16.1 0.00 0.03 0.03 57 1012.3
20260831200035 29 202 9.7 16.1 0.00 0.03 0.03 54 1012.3
20260831195515 30 197 6.4 17.7 0.00 0.03 0.03 54 1012.2
20260831195016 30 194 6.4 27.4 0.00 0.03 0.03 55 1012.1
20260831194515 30 171 11.3 27.4 0.00 0.03 0.03 55 1011.9
20260831194015 30 190 6.4 19.3 0.00 0.03 0.03 56 1012.0
20260831193515 30 182 9.7 19.3 0.00 0.03 0.03 56 1012.1
20260831193015 30 200 8.0 19.3 0.00 0.03 0.03 58 1012.0
20260831192515 30 184 8.0 19.3 0.00 0.03 0.03 58 1012.1
20260831192016 30 156 8.0 20.9 0.00 0.03 0.03 60 1012.2
20260831191515 29 180 12.9 22.5 0.00 0.03 0.03 59 1012.2
20260831191016 28 191 9.7 22.5 0.00 0.03 0.03 61 1012.3
20260831190515 28 168 8.0 17.7 0.00 0.03 0.03 62 1012.2
20260831190015 28 174 8.0 22.5 0.00 0.03 0.03 61 1012.1
20260831185555 28 186 9.7 24.1 0.00 0.03 0.03 59 1012.2
20260831185015 28 179 14.5 29.0 0.00 0.03 0.03 59 1012.3
20260831184516 28 173 14.5 29.0 0.00 0.03 0.03 61 1012.3
20260831184036 28 167 12.9 25.7 0.00 0.03 0.03 62 1012.4
20260831183515 28 172 11.3 25.7 0.00 0.05 0.03 64 1012.5
20260831183015 27 162 8.0 16.1 0.00 0.05 0.03 67 1012.6
20260831182515 27 164 9.7 22.5 0.00 0.05 0.03 65 1012.5
20260831182015 27 171 6.4 22.5 0.00 0.05 0.03 67 1012.7
20260831181515 27 163 6.4 29.0 0.00 0.08 0.03 70 1012.7
20260831181015 27 178 8.0 29.0 0.00 0.10 0.03 67 1012.6
20260831180516 27 173 9.7 22.5 0.00 0.10 0.03 67 1012.8
20260831180015 27 184 9.7 20.9 0.00 0.13 0.03 66 1012.9
20260831175515 27 171 11.3 20.9 0.00 0.13 0.03 66 1013.1
20260831175015 27 178 11.3 20.9 0.00 0.15 0.03 65 1013.3
20260831174535 27 185 11.3 19.3 0.00 0.15 0.03 67 1013.4
20260831174016 27 195 8.0 20.9 0.00 0.18 0.03 70 1013.4
20260831173515 26 170 9.7 20.9 0.00 0.20 0.03 71 1013.4
20260831173016 26 180 8.0 19.3 0.00 0.20 0.03 72 1013.5
20260831172517 26 182 9.7 22.5 0.00 0.20 0.03 71 1013.4
20260831172017 26 183 11.3 25.7 0.00 0.23 0.03 72 1013.5
20260831171517 26 193 11.3 25.7 0.00 0.23 0.03 73 1013.4
20260831171017 26 184 12.9 27.4 0.00 0.25 0.03 73 1013.4
20260831170517 26 178 11.3 27.4 0.00 0.25 0.03 75 1013.6
20260831170017 25 178 9.7 19.3 0.00 0.25 0.03 78 1013.7
20260831165518 25 199 9.7 17.7 0.00 0.25 0.03 78 1013.8
20260831165017 25 177 9.7 25.7 0.00 0.28 0.03 80 1013.9
20260831164517 24 174 11.3 25.7 0.00 0.28 0.03 82 1014.0
20260831164037 23 174 8.0 20.9 0.00 0.30 0.03 83 1014.1
20260831163517 23 166 6.4 14.5 0.00 0.30 0.03 87 1014.1
20260831163017 22 153 6.4 14.5 0.00 0.33 0.03 86 1014.1
20260831162518 22 150 6.4 12.9 0.00 0.38 0.03 87 1014.0
20260831162038 22 146 6.4 11.3 0.00 0.38 0.03 87 1014.1
20260831161538 22 140 4.8 8.0 0.00 0.41 0.03 87 1014.2
20260831161017 22 140 4.8 8.0 0.00 0.41 0.03 87 1014.2
20260831160518 22 165 3.2 12.9 0.00 0.43 0.03 87 1014.4
20260831160057 22 149 4.8 12.9 0.00 0.46 0.03 87 1014.3
20260831155517 22 145 4.8 8.0 0.00 0.46 0.03 87 1014.4
20260831155017 22 164 1.6 8.0 0.00 0.48 0.03 87 1014.4
20260831154539 22 144 3.2 12.9 0.00 0.48 0.03 87 1014.4
20260831154017 22 140 6.4 12.9 0.00 0.51 0.03 87 1014.4
20260831153518 22 150 3.2 9.7 0.00 0.51 0.03 87 1014.6
20260831153037 22 194 0.0 6.4 0.00 0.53 0.03 87 1014.8
20260831152518 22 192 1.6 9.7 0.00 0.56 0.03 88 1014.9
20260831152017 22 150 4.8 9.7 0.00 0.56 0.03 88 1014.8
20260831151517 22 137 4.8 8.0 0.00 0.58 0.03 88 1014.6
20260831151017 22 144 3.2 8.0 0.00 0.61 0.03 88 1014.9
20260831150517 22 140 3.2 8.0 0.03 0.61 0.03 87 1014.8
20260831150017 22 160 3.2 8.0 0.03 0.64 0.03 87 1014.9
20260831145517 22 150 4.8 9.7 0.03 0.64 0.03 87 1014.8
20260831145017 22 154 3.2 11.3 0.03 0.66 0.03 88 1014.7
20260831144517 22 163 1.6 11.3 0.03 0.66 0.03 89 1014.7
20260831144017 22 150 1.6 6.4 0.03 0.69 0.03 89 1014.7
20260831143517 21 132 1.6 9.7 0.03 0.69 0.03 89 1014.7
20260831143016 21 163 3.2 9.7 0.03 0.71 0.03 89 1014.8
20260831142538 21 218 0.0 8.0 0.03 0.71 0.03 90 1014.7
20260831142017 21 348 3.2 8.0 0.03 0.74 0.03 90 1014.7
20260831141517 21 28 1.6 6.4 0.03 0.74 0.03 90 1014.4
20260831141016 21 159 0.0 14.5 0.03 0.74 0.03 90 1014.4
20260831140518 21 144 4.8 14.5 0.00 0.74 0.00 90 1014.3
20260831140016 21 124 8.0 14.5 0.00 0.74 0.00 90 1014.1
20260831135537 21 127 6.4 12.9 0.00 0.76 0.00 90 1014.1
20260831135016 21 143 1.6 4.8 0.00 0.76 0.00 90 1014.4
20260831134517 21 139 0.0 1.6 0.00 0.79 0.00 89 1014.5
20260831134017 21 146 0.0 1.6 0.00 0.79 0.00 88 1014.4
20260831133518 21 145 0.0 8.0 0.00 0.79 0.00 88 1014.4
20260831133017 21 134 1.6 8.0 0.00 0.81 0.00 88 1014.2
20260831132517 21 116 1.6 8.0 0.00 0.81 0.00 88 1014.1
20260831132017 21 94 4.8 9.7 0.00 0.84 0.00 87 1014.2
20260831131538 21 122 4.8 9.7 0.00 0.84 0.00 86 1014.2
20260831131038 21 139 3.2 8.0 0.00 0.84 0.00 86 1014.4
20260831130518 21 179 3.2 8.0 0.00 0.86 0.00 86 1014.6
20260831130017 21 193 0.0 6.4 0.00 0.86 0.00 86 1014.7
20260831125518 21 197 1.6 6.4 0.00 0.86 0.00 86 1014.6
20260831125017 21 193 1.6 6.4 0.00 0.89 0.00 87 1014.6
20260831124517 21 164 1.6 6.4 0.00 0.89 0.00 87 1014.5
20260831124016 21 216 1.6 9.7 0.00 0.89 0.00 87 1014.5
20260831123517 21 227 1.6 9.7 0.00 0.91 0.00 88 1014.5
20260831123017 21 193 1.6 8.0 0.00 0.91 0.00 88 1014.6
20260831122518 21 155 0.0 4.8 0.00 0.91 0.00 89 1014.3
20260831122017 21 205 0.0 4.8 0.00 0.91 0.00 89 1014.3
20260831121516 21 218 0.0 9.7 0.00 0.91 0.00 89 1014.2
20260831121016 21 186 4.8 9.7 0.00 0.94 0.00 90 1014.2
20260831120518 21 188 3.2 8.0 0.00 0.94 0.00 91 1014.2
20260831120016 21 177 1.6 12.9 0.00 0.94 0.00 92 1014.2
20260831115516 20 134 4.8 12.9 0.00 0.94 0.00 92 1013.9
20260831115017 20 125 4.8 8.0 0.00 0.94 0.00 92 1013.6
20260831114517 20 131 4.8 8.0 0.00 0.94 0.00 92 1013.6
20260831114038 20 130 3.2 6.4 0.00 0.94 0.00 92 1013.7
20260831113516 20 123 3.2 6.4 0.00 0.94 0.00 92 1013.6
20260831113016 20 125 1.6 4.8 0.00 0.94 0.00 92 1013.6
20260831112517 20 138 0.0 4.8 0.00 0.94 0.00 92 1013.7
20260831112017 20 139 1.6 6.4 0.00 0.94 0.00 92 1013.6
20260831111517 20 145 3.2 6.4 0.00 0.94 0.00 92 1013.5
20260831111016 20 140 1.6 4.8 0.00 0.94 0.00 92 1013.6
20260831110516 20 138 1.6 6.4 0.00 0.94 0.00 92 1013.6
20260831110016 20 143 1.6 6.4 0.00 0.97 0.00 92 1013.7
20260831105516 20 150 0.0 3.2 0.00 0.97 0.00 92 1013.8
20260831105016 20 156 0.0 1.6 0.00 0.97 0.00 92 1013.8
20260831104517 20 151 0.0 3.2 0.00 0.97 0.00 92 1013.9
20260831104016 20 172 0.0 4.8 0.00 0.97 0.00 92 1013.8
20260831103517 20 155 0.0 4.8 0.00 0.97 0.00 92 1013.8
20260831103038 20 160 1.6 6.4 0.00 0.97 0.00 92 1013.8
20260831102516 20 184 1.6 8.0 0.00 0.97 0.00 93 1013.8
20260831102016 20 164 1.6 8.0 0.00 0.97 0.00 93 1013.7
20260831101536 20 152 1.6 8.0 0.00 0.97 0.00 93 1013.7
20260831101016 20 156 1.6 8.0 0.00 0.97 0.00 93 1013.7
20260831100516 19 139 0.0 4.8 0.00 0.97 0.00 93 1013.8
20260831100016 19 128 0.0 4.8 0.00 0.97 0.00 92 1013.8
20260831095516 19 130 1.6 4.8 0.00 0.97 0.00 92 1013.8
20260831095037 19 133 0.0 3.2 0.00 0.97 0.00 92 1013.9
20260831094516 19 144 0.0 1.6 0.00 0.97 0.00 92 1013.9
20260831094017 19 155 0.0 3.2 0.00 0.97 0.00 92 1014.0
20260831093516 19 152 0.0 3.2 0.00 0.97 0.00 92 1013.9
20260831093036 19 147 0.0 3.2 0.00 0.99 0.00 92 1014.0
20260831092516 19 151 0.0 3.2 0.00 0.99 0.00 92 1013.9
20260831092016 19 160 0.0 6.4 0.00 0.99 0.00 92 1014.1
20260831091516 19 164 0.0 6.4 0.00 0.99 0.00 92 1014.1
20260831091016 19 152 0.0 3.2 0.00 0.99 0.00 92 1014.1
20260831090516 19 135 0.0 3.2 0.00 0.99 0.00 92 1014.0
20260831090016 19 127 1.6 4.8 0.00 0.99 0.00 92 1014.0
20260831085556 19 141 1.6 4.8 0.00 0.99 0.00 92 1014.0
20260831085016 19 0.0 0.0 0.00 0.99 0.00 91 1014.0
20260831084537 19 0.0 0.0 0.00 0.99 0.00 91 1014.0
20260831084016 19 0.0 0.0 0.00 0.99 0.00 91 1014.0
20260831083516 19 0.0 0.0 0.00 0.99 0.00 91 1013.9
20260831083016 19 0.0 0.0 0.00 0.99 0.00 91 1013.9
20260831082536 20 0.0 0.0 0.00 0.99 0.00 90 1014.0
20260831082016 20 0.0 0.0 0.00 0.99 0.00 90 1013.9
20260831081536 20 0.0 0.0 0.00 0.99 0.00 90 1014.1
20260831081036 20 0.0 0.0 0.00 0.99 0.00 90 1014.1
20260831080516 20 0.0 0.0 0.00 0.99 0.00 90 1014.0
20260831080037 20 0.0 0.0 0.00 0.99 0.00 89 1014.1
20260831075516 20 0.0 0.0 0.00 0.99 0.00 89 1014.1
20260831075016 20 0.0 0.0 0.00 0.99 0.00 90 1014.2
20260831074516 20 0.0 0.0 0.00 0.99 0.00 90 1014.1
20260831074017 20 0.0 0.0 0.00 0.99 0.00 90 1014.3
20260831073536 20 0.0 3.2 0.00 0.99 0.00 90 1014.2
20260831073016 20 138 0.0 4.8 0.00 0.99 0.00 89 1014.2
20260831072517 20 148 1.6 4.8 0.00 0.99 0.00 89 1014.2
20260831072016 20 138 0.0 4.8 0.00 0.99 0.00 89 1014.2
20260831071517 20 139 0.0 3.2 0.00 0.99 0.00 89 1014.2
20260831071016 20 155 0.0 1.6 0.00 0.99 0.00 89 1014.2
20260831070536 20 0.0 4.8 0.00 0.99 0.00 89 1014.3
20260831070057 20 168 0.0 4.8 0.00 0.99 0.00 89 1014.3
20260831065515 20 194 0.0 4.8 0.00 0.99 0.00 89 1014.2
20260831065016 20 0.0 0.0 0.00 0.99 0.00 89 1014.2
20260831064516 20 0.0 1.6 0.00 0.99 0.00 89 1014.2
20260831064016 20 160 0.0 1.6 0.00 0.99 0.00 89 1014.1
20260831063516 20 155 0.0 4.8 0.00 0.99 0.00 89 1014.1
20260831063016 20 155 0.0 4.8 0.00 0.99 0.00 89 1014.1
20260831062516 20 136 0.0 3.2 0.00 0.99 0.00 89 1013.9
20260831062016 20 131 0.0 6.4 0.00 0.99 0.00 89 1013.8
20260831061517 20 144 1.6 6.4 0.00 0.99 0.00 89 1013.8
20260831061015 20 149 1.6 4.8 0.00 0.99 0.00 89 1013.7
20260831060517 20 150 0.0 6.4 0.00 0.99 0.00 89 1013.8
20260831060016 20 145 1.6 6.4 0.00 0.99 0.00 89 1013.8
20260831055516 20 150 1.6 6.4 0.00 0.99 0.00 89 1013.7
20260831055016 20 151 3.2 6.4 0.00 0.99 0.00 89 1014.0
20260831054516 20 160 1.6 9.7 0.00 0.99 0.00 89 1014.1
20260831054055 20 165 3.2 9.7 0.00 0.99 0.00 89 1014.1
20260831053516 20 147 3.2 9.7 0.00 0.99 0.00 89 1014.0
20260831053016 20 154 1.6 8.0 0.00 0.99 0.00 88 1014.0
20260831052516 20 137 1.6 6.4 0.00 0.99 0.00 88 1014.0
20260831052017 20 156 1.6 8.0 0.00 0.99 0.00 88 1014.2
20260831051516 20 150 1.6 8.0 0.00 0.99 0.00 88 1014.2
20260831051016 20 146 3.2 11.3 0.00 0.99 0.00 88 1014.1
20260831050515 20 147 4.8 11.3 0.00 0.99 0.00 88 1014.1
20260831050017 20 156 1.6 8.0 0.00 0.99 0.00 87 1014.2
20260831045536 20 154 1.6 9.7 0.00 0.99 0.00 87 1014.2
20260831045036 20 159 3.2 9.7 0.00 0.99 0.00 87 1014.2
20260831044515 20 153 3.2 9.7 0.00 0.99 0.00 87 1014.2
20260831044015 20 159 1.6 8.0 0.00 0.99 0.00 86 1014.2
20260831043515 21 146 4.8 11.3 0.00 0.99 0.00 86 1014.2
20260831043017 21 136 4.8 11.3 0.00 0.99 0.00 86 1014.1
20260831042515 21 148 1.6 8.0 0.00 0.99 0.00 85 1014.1
20260831042016 21 128 1.6 6.4 0.00 0.99 0.00 85 1014.2
20260831041515 21 130 3.2 8.0 0.00 0.99 0.00 85 1014.2
20260831041015 21 159 1.6 8.0 0.00 0.99 0.00 85 1014.2
20260831040534 21 157 1.6 1.6 0.00 0.99 0.00 85 1014.2
20260831040017 21 134 3.2 8.0 0.00 0.99 0.99 85 1014.0
20260831035516 21 139 0.0 9.7 0.00 0.99 0.99 85 1014.1
20260831035016 21 140 3.2 9.7 0.00 0.99 0.99 84 1014.1
20260831034536 21 132 3.2 9.7 0.00 0.99 0.99 84 1014.0
20260831034016 21 152 4.8 9.7 0.00 0.99 0.99 84 1014.1
20260831033516 21 157 3.2 9.7 0.00 0.99 0.99 84 1014.1
20260831033017 21 139 3.2 9.7 0.00 0.99 0.99 84 1014.0
20260831032617 21 124 4.8 9.7 0.00 0.99 0.99 84 1014.0
20260831032016 21 128 4.8 11.3 0.00 0.99 0.99 84 1014.0
20260831031516 21 152 4.8 14.5 0.00 0.99 0.99 84 1014.1
20260831031016 21 157 6.4 14.5 0.00 0.99 0.99 84 1014.2
20260831030516 21 155 3.2 14.5 0.00 0.99 0.99 84 1014.3
20260831030036 21 155 3.2 14.5 0.00 0.99 0.99 84 1014.2
20260831025556 21 179 3.2 9.7 0.00 0.99 0.99 84 1014.0
20260831025016 21 204 1.6 9.7 0.00 0.99 0.99 84 1014.2
20260831024516 21 224 0.0 6.4 0.00 0.99 0.99 85 1014.3
20260831024016 21 308 3.2 6.4 0.00 0.99 0.99 85 1014.1
20260831023516 21 53 3.2 14.5 0.00 0.99 0.99 85 1013.9
20260831023017 21 112 6.4 14.5 0.00 0.99 0.99 84 1013.5
20260831022517 21 121 3.2 8.0 0.00 0.99 0.99 84 1013.7
20260831022036 21 83 1.6 6.4 0.00 0.99 0.99 84 1013.8
20260831021516 21 117 3.2 9.7 0.00 0.99 0.99 84 1013.8
20260831021017 21 134 1.6 9.7 0.00 0.99 0.99 84 1013.8
20260831020517 21 159 4.8 11.3 0.00 0.99 0.99 84 1013.8
20260831020016 21 173 6.4 11.3 0.00 0.99 0.99 84 1013.9
20260831015516 21 170 4.8 11.3 0.00 0.99 0.99 83 1013.8
20260831015016 21 191 3.2 11.3 0.00 0.99 0.99 83 1014.0
20260831014516 22 217 4.8 9.7 0.00 0.99 0.99 83 1014.2
20260831014016 22 255 3.2 9.7 0.00 0.99 0.99 82 1014.2
20260831013516 22 257 1.6 8.0 0.00 0.99 0.99 83 1014.1
20260831013015 22 220 3.2 9.7 0.00 0.99 0.99 83 1014.0
20260831012516 22 202 3.2 9.7 0.00 0.99 0.99 82 1013.9
20260831012016 22 217 3.2 14.5 0.00 0.99 0.99 82 1013.8
20260831011517 22 202 4.8 14.5 0.00 0.99 0.99 82 1013.7
20260831011015 22 210 3.2 8.0 0.00 0.99 0.99 82 1013.7
20260831010537 22 227 3.2 8.0 0.00 0.99 0.99 82 1013.5
20260831010036 22 235 1.6 8.0 0.00 0.99 0.99 81 1013.5
20260831005516 22 232 3.2 8.0 0.00 0.99 0.99 81 1013.4
20260831005037 22 247 1.6 8.0 0.00 0.99 0.99 81 1013.3
20260831004516 22 199 3.2 8.0 0.00 0.99 0.99 81 1013.3
20260831004016 22 198 3.2 8.0 0.00 0.99 0.99 81 1013.2
20260831003516 22 192 3.2 6.4 0.00 0.99 0.99 81 1013.2
20260831003016 22 212 3.2 11.3 0.00 0.99 0.99 80 1013.3
20260831002517 22 230 4.8 11.3 0.00 0.99 0.99 79 1013.4
20260831002015 22 240 0.0 8.0 0.00 0.99 0.99 79 1013.3
20260831001516 22 242 1.6 8.0 0.00 0.99 0.99 79 1013.3
20260831001017 22 223 1.6 9.7 0.00 0.99 0.99 79 1013.3
20260831000516 22 243 1.6 11.3 0.00 0.99 0.99 79 1013.2
20260831000037 23 225 4.8 16.1 0.00 0.99 0.99 79 1013.3
20260830235515 23 238 9.7 22.5 0.00 0.99 0.99 78 1013.4
20260830235015 23 224 9.7 22.5 0.00 0.99 0.99 78 1013.4
20260830234516 23 235 8.0 20.9 0.00 0.99 0.99 78 1013.5
20260830234017 23 236 8.0 20.9 0.00 0.99 0.99 78 1013.5
20260830233535 23 233 8.0 17.7 0.00 0.99 0.99 77 1013.5
20260830233015 23 227 9.7 17.7 0.00 0.99 0.99 77 1013.4
20260830232516 23 227 8.0 17.7 0.00 0.99 0.99 77 1013.4
20260830232015 23 218 9.7 17.7 0.00 0.99 0.99 77 1013.4
20260830231515 23 208 4.8 16.1 0.00 0.99 0.99 77 1013.4